Date String (YYYY-MM-DD hh:mm:ss) UTC,Instrument flags,absolute air pressure of the measurement (hPa),sample flow rate (lpm),inlet stack bypass flow (lpm),air temperature of the measurement (°C),ambient temperature measured by the external sensor (°C),aerosol sample conditioner tube jacket temperature (°C),OPC LED temperature (°C),internal box temperature (°C),relative humidity of the measurement (%),span deviation,mass concentration of particles derived from Lorenz-Mie calculation of OPC scattering (μg/m³),mass concentration of particles derived from Lorenz-Mie calculation of OPC scattering (μg/m³),mass concentration of particles derived from Lorenz-Mie calculation of OPC scattering (μg/m³)
DateTimeUTC,F1_M11,P_M11,Q1_M11,Q2_M11,T1_M11,T2_M11,T3_M11,T4_M11,T5_M11,U1_M11,ZSPAN_M11,X0_M11,X2_M11,X1_M11
2024-06-05 13:00:00,SystemResetWarning,0827.5,5.01,000.00,031.2,030.4,000.0,039.6,032.9,013.9,0000.0,0003.64,0001.46,0000.63
2024-06-05 13:01:00,SystemResetWarning,0827.6,5.00,000.00,031.2,030.4,000.0,039.6,032.9,014.0,0000.0,0003.83,0001.41,0000.62
2024-06-05 13:02:00,SystemResetWarning,0827.5,5.00,000.00,031.2,030.4,000.0,039.6,032.9,013.9,0000.0,0003.75,0001.36,0000.61
2024-06-05 13:03:00,SystemResetWarning,0827.4,5.00,000.00,031.2,030.4,000.0,039.6,032.9,013.5,0000.0,0004.11,0001.40,0000.61
2024-06-05 13:04:00,SystemResetWarning,0827.4,5.00,000.00,031.2,030.4,000.0,039.5,032.9,013.3,0000.0,0004.05,0001.37,0000.61
2024-06-05 13:05:00,SystemResetWarning,0827.5,5.00,000.00,031.2,030.4,000.0,039.6,032.9,013.0,0000.0,0003.74,0001.26,0000.61
2024-06-05 13:06:00,SystemResetWarning,0827.5,5.00,000.00,031.2,030.4,000.0,039.6,032.9,012.8,0000.0,0003.73,0001.27,0000.60
2024-06-05 13:07:00,SystemResetWarning,0827.4,4.99,000.00,031.2,030.4,000.0,039.6,032.9,013.1,0000.0,0003.78,0001.28,0000.61
2024-06-05 13:08:00,SystemResetWarning,0827.8,4.99,000.00,031.2,030.4,000.0,039.6,032.9,013.2,0000.0,0003.56,0001.23,0000.61
2024-06-05 13:09:00,SystemResetWarning,0827.5,5.00,000.00,031.2,030.4,000.0,039.6,032.9,013.4,0000.0,0003.57,0001.24,0000.61
2024-06-05 13:10:00,SystemResetWarning,0827.4,5.00,000.00,031.2,030.4,000.0,039.6,032.9,013.4,0000.0,0003.67,0001.29,0000.61
2024-06-05 13:11:00,SystemResetWarning,0827.6,5.00,000.00,031.2,030.4,000.0,039.6,032.9,013.5,0000.0,0003.35,0001.29,0000.60
2024-06-05 13:12:00,SystemResetWarning,0827.5,5.00,000.00,031.2,030.4,000.0,039.6,032.9,013.2,0000.0,0003.12,0001.31,0000.60
2024-06-05 13:13:00,SystemResetWarning,0827.5,5.01,000.00,031.3,030.5,000.0,039.6,032.9,013.0,0000.0,0003.71,0001.34,0000.60
2024-06-05 13:14:00,SystemResetWarning,0827.5,5.00,000.00,031.3,030.5,000.0,039.6,032.9,013.4,0000.0,0003.62,0001.36,0000.60
2024-06-05 13:15:00,SystemResetWarning,0827.4,5.00,000.00,031.3,030.5,000.0,039.6,032.9,013.6,0000.0,0003.63,0001.38,0000.60
2024-06-05 13:16:00,SystemResetWarning,0827.5,4.99,000.00,031.2,029.7,000.0,039.6,032.4,013.0,0000.0,0003.60,0001.38,0000.61
2024-06-05 13:17:00,SystemResetWarning,0827.5,5.00,000.00,030.8,027.5,000.0,039.6,031.3,013.7,0000.0,0003.44,0001.33,0000.61
2024-06-05 13:18:00,SystemResetWarning,0827.4,5.02,000.00,030.4,027.0,000.0,039.6,031.0,014.2,0000.0,0003.33,0001.31,0000.61
2024-06-05 13:19:00,SystemResetWarning,0827.4,5.00,000.00,030.3,027.4,000.0,039.4,031.1,014.3,0000.0,0003.48,0001.33,0000.61
2024-06-05 13:20:00,SystemResetWarning,0827.4,5.00,000.00,030.2,027.8,000.0,039.3,031.4,013.8,0000.0,0003.80,0001.38,0000.61
2024-06-05 13:21:00,SystemResetWarning,0827.4,5.00,000.00,030.2,028.1,000.0,039.2,031.6,014.0,0000.0,0003.76,0001.33,0000.60
2024-06-05 13:22:00,SystemResetWarning,0827.4,5.00,000.00,030.2,028.4,000.0,039.1,031.7,014.1,0000.0,0004.91,0001.29,0000.60
2024-06-05 13:23:00,SystemResetWarning,0827.4,5.00,000.00,030.3,028.7,000.0,039.0,031.8,014.0,0000.0,0004.81,0001.21,0000.61
2024-06-05 13:24:00,SystemResetWarning,0827.6,5.00,000.00,030.3,028.9,000.0,039.0,031.9,013.9,0000.0,0004.59,0001.19,0000.61
2024-06-05 13:25:00,SystemResetWarning,0827.5,5.01,000.00,030.3,029.1,000.0,038.9,031.9,013.9,0000.0,0004.73,0001.18,0000.61
2024-06-05 13:26:00,SystemResetWarning,0827.5,5.00,000.00,030.3,029.2,000.0,038.9,032.0,013.9,0000.0,0004.77,0001.18,0000.61
2024-06-05 13:27:00,SystemResetWarning,0827.5,5.00,000.00,030.4,029.3,000.0,038.9,032.0,013.9,0000.0,0004.72,0001.18,0000.61
2024-06-05 13:28:00,SystemResetWarning,0827.5,4.99,000.00,030.4,029.4,000.0,038.8,032.0,014.2,0000.0,0004.75,0001.15,0000.60
2024-06-05 13:29:00,SystemResetWarning,0827.5,4.99,000.00,030.4,029.5,000.0,038.8,032.1,013.7,0000.0,0004.85,0001.18,0000.61
2024-06-05 13:30:00,SystemResetWarning,0827.7,5.00,000.00,030.4,029.6,000.0,038.8,032.1,013.8,0000.0,0005.00,0001.20,0000.60
2024-06-05 13:31:00,SystemResetWarning,0827.7,5.01,000.00,030.5,029.6,000.0,038.8,032.1,013.7,0000.0,0004.84,0001.20,0000.60
2024-06-05 13:32:00,SystemResetWarning,0827.7,5.01,000.00,030.5,029.7,000.0,038.8,032.1,013.7,0000.0,0004.89,0001.19,0000.60
2024-06-05 13:33:00,SystemResetWarning,0827.7,4.99,000.00,030.5,029.8,000.0,038.8,032.2,013.7,0000.0,0004.34,0001.18,0000.61
2024-06-05 13:34:00,SystemResetWarning,0827.7,4.99,000.00,030.5,029.8,000.0,038.8,032.2,013.6,0000.0,0003.75,0001.21,0000.61
2024-06-05 13:35:00,SystemResetWarning,0827.7,5.01,000.00,030.6,029.8,000.0,038.8,032.2,013.5,0000.0,0003.89,0001.25,0000.61
2024-06-05 13:36:00,SystemResetWarning,0827.8,5.01,000.00,030.6,029.9,000.0,038.8,032.2,013.7,0000.0,0003.46,0001.23,0000.61
2024-06-05 13:37:00,SystemResetWarning,0827.7,4.99,000.00,030.6,029.9,000.0,038.8,032.3,013.5,0000.0,0004.03,0001.22,0000.61
2024-06-05 13:38:00,SystemResetWarning,0827.7,4.99,000.00,030.6,029.9,000.0,038.9,032.3,013.4,0000.0,0004.42,0001.22,0000.60
2024-06-05 13:39:00,SystemResetWarning,0827.7,4.99,000.00,030.7,030.0,000.0,038.9,032.3,013.5,0000.0,0004.47,0001.22,0000.60
2024-06-05 13:40:00,SystemResetWarning,0827.8,5.00,000.00,030.7,030.0,000.0,038.9,032.4,013.6,0000.0,0004.48,0001.21,0000.60
2024-06-05 13:41:00,SystemResetWarning,0827.7,5.00,000.00,030.7,030.0,000.0,038.9,032.4,013.4,0000.0,0004.97,0001.18,0000.59
2024-06-05 13:42:00,SystemResetWarning,0827.9,5.01,000.00,030.7,030.0,000.0,038.9,032.4,014.1,0000.0,0004.76,0001.13,0000.58
2024-06-05 13:43:00,SystemResetWarning,0827.8,5.01,000.00,030.7,030.1,000.0,038.9,032.4,013.5,0000.0,0004.60,0001.08,0000.57
2024-06-05 13:44:00,SystemResetWarning,0827.8,5.00,000.00,030.8,030.1,000.0,038.9,032.4,013.5,0000.0,0004.25,0001.06,0000.56
2024-06-05 13:45:00,SystemResetWarning,0827.8,4.99,000.00,030.8,030.1,000.0,039.0,032.4,013.5,0000.0,0004.30,0001.08,0000.54
2024-06-05 13:46:00,SystemResetWarning,0827.8,4.99,000.00,030.8,030.1,000.0,039.0,032.5,013.6,0000.0,0005.08,0001.07,0000.53
2024-06-05 13:47:00,SystemResetWarning,0827.8,5.00,000.00,030.8,030.1,000.0,039.0,032.5,013.6,0000.0,0006.15,0001.03,0000.51
2024-06-05 13:48:00,SystemResetWarning,0827.8,5.02,000.00,030.8,030.1,000.0,039.0,032.5,013.1,0000.0,0005.35,0000.96,0000.49
2024-06-05 13:49:00,SystemResetWarning,0827.8,5.00,000.00,030.8,030.2,000.0,039.0,032.5,013.3,0000.0,0005.09,0000.93,0000.48
2024-06-05 13:50:00,SystemResetWarning,0827.8,4.99,000.00,030.9,030.2,000.0,039.0,032.5,013.8,0000.0,0005.15,0000.96,0000.48
2024-06-05 13:51:00,SystemResetWarning,0827.9,4.99,000.00,030.9,030.2,000.0,039.0,032.5,013.7,0000.0,0005.13,0000.97,0000.47
2024-06-05 13:52:00,SystemResetWarning,0828.0,5.00,000.00,030.9,030.2,000.0,039.1,032.5,014.0,0000.0,0004.45,0000.96,0000.46
2024-06-05 13:53:00,SystemResetWarning,0827.8,5.01,000.00,030.9,030.2,000.0,039.1,032.5,013.6,0000.0,0004.50,0000.97,0000.45
2024-06-05 13:54:00,SystemResetWarning,0827.8,4.99,000.00,030.8,029.0,000.0,039.2,031.9,013.7,0000.0,0005.30,0000.99,0000.45
2024-06-05 13:55:00,SystemResetWarning,0827.8,5.01,000.00,030.4,026.9,000.0,039.2,030.9,013.9,0000.0,0005.35,0000.96,0000.44
2024-06-05 13:56:00,SystemResetWarning,0827.8,5.02,000.00,030.1,026.8,000.0,039.1,030.7,013.9,0000.0,0006.11,0000.92,0000.44
2024-06-05 13:57:00,SystemResetWarning,0827.8,4.98,000.00,030.0,027.3,000.0,039.0,030.9,014.2,0000.0,0006.22,0000.93,0000.43
2024-06-05 13:58:00,SystemResetWarning,0827.8,4.99,000.00,030.0,027.6,000.0,038.9,031.2,013.9,0000.0,0006.24,0000.97,0000.42
2024-06-05 13:59:00,SystemResetWarning,0828.0,5.00,000.00,030.0,028.0,000.0,038.8,031.4,014.0,0000.0,0006.35,0000.99,0000.43
